YMAY

Details ICAO YMAY (ABX)
Name Albury Airport
Region Australia
Timezone Australia/Sydney (UTC+10.0)
Plans Departing 26
Arriving 45
Stats Elevation 539 ft / 164 m (AMSL)
Location -36.066760° 146.959338°
Runways 1
Magnetic Variation 11.822° E
Sunrise 2018-05-21 21:08:09 UTC / 2018-05-22 07:08:09 Local
Sunset 2018-05-22 07:12:18 UTC / 2018-05-22 17:12:18 Local
Advertisement - Login to hide

Runways

ID Width Length Bearing (true) Bearing (mag) Surface Threshold Offset Overrun Length
07 98 ft / 30 m 6,222 ft / 1,897 m 81.11° 69.29° Asphalt 0 ft / 0 m 0 ft / 0 m
25 98 ft / 30 m 6,222 ft / 1,897 m 261.09° 249.27° Asphalt 0 ft / 0 m 0 ft / 0 m

Map

Weather


0- 5 10 15 20 25 30 35+ Temperature / ° C

Clouds and Precipitation
Forecast for 2018-05-21 18:00 UTC. Updated 4 hours ago

Ground ~20,000 ft ~40,000 ft Winds

METAR

YMAY 212130Z AUTO 28005KT 9999 // OVC021 12/08 Q1024

TAF

Not found

Frequencies

Unicom 120.60 MHz ACTIVATE LIGHTS ONLY MULT
Tower 124.20 MHz ALBURY TWR
Unicom 124.20 MHz ALBURY MULT
Tower 125.20 MHz MELBOURNE CNTR
Warning: Do not use this data for real-world aviation or navigation. No guarantee of current accuracy is given.